Wind_Speed
36 35 32 39 44 43 40 37 38 39 36 35 34 34 35 34 31 29 27 28 21 19
34 33 32 33 34 39 42 40 40 40 38 36 35 33 34 35 34 32 28 28 24 21
36 36 36 36 34 33 34 42 44 42 41 38 35 33 33 35 34 32 30 29 27 23
36 39 40 38 39 38 39 37 39 42 41 40 39 37 35 35 35 32 31 30 28 24
39 40 39 38 38 40 40 41 43 42 40 39 40 38 38 35 31 31 31 31 29 28
38 38 39 38 38 37 38 38 37 38 39 37 33 25 22 22 25 27 26 22 25 27
37 39 39 38 36 36 36 37 38 38 39 38 35 35 39 33 31 31 22 34 30 26
33 35 36 37 36 35 36 36 38 38 38 40 41 40 39 38 39 39 42 39 34 31
25 29 32 35 35 34 36 33 35 35 38 38 37 37 40 38 38 36 36 34 29 28
19 26 28 33 35 36 37 36 36 36 36 35 36 38 36 35 36 35 34 34 32 29
15 21 22 26 29 35 38 37 38 37 36 36 34 32 31 33 32 32 32 31 30 29
11 15 21 23 22 25 30 35 37 37 37 36 34 31 32 33 33 31 30 29 29 29
6 13 16 20 22 22 23 22 32 32 33 33 34 33 34 31 32 30 30 28 27 27
3 7 11 15 16 23 21 19 22 26 26 27 33 31 29 29 33 36 34 32 31 28
Wind_Direction
190 191 191 185 184 187 188 189 193 192 193 194 194 195 196 195 195 192 197 193 185 184
191 190 190 192 188 189 192 193 196 196 196 195 196 198 198 199 199 199 198 193 190 188
197 197 194 195 194 191 192 197 200 200 201 201 200 200 200 200 203 204 200 192 189 191
196 198 202 195 199 205 204 203 198 199 202 202 201 201 202 203 202 203 199 194 195 194
199 198 196 199 201 206 207 211 209 206 202 199 194 195 201 202 202 202 199 199 194 192
203 200 200 202 203 205 208 208 206 207 203 195 194 198 215 221 208 205 199 207 197 192
205 206 205 205 205 206 210 210 209 208 208 205 208 203 206 199 208 210 218 216 213 209
213 209 207 203 204 205 207 209 210 207 208 209 205 205 203 201 207 206 202 204 204 202
223 216 210 205 201 202 203 202 206 204 204 204 207 209 209 207 205 203 202 197 196 194
230 221 211 212 200 201 200 197 201 205 203 205 206 205 206 207 202 199 198 196 193 187
228 221 213 214 200 198 199 194 199 199 199 200 200 200 201 200 198 195 195 195 194 191
222 218 211 207 203 200 194 191 197 197 198 197 190 188 186 191 187 188 189 190 192 192
221 215 198 204 200 209 200 192 191 193 198 196 187 178 179 190 185 180 180 184 184 188
190 207 194 195 194 198 190 190 181 182 192 192 191 177 174 188 186 180 170 172 175 181
Height
772 777 784 785 789 798 805 812 818 824 830 836 841 846 851 857 861 865 869 874 878 880
768 773 778 784 787 792 800 806 813 820 826 832 837 843 847 852 857 862 866 870 873 877
764 769 773 779 784 789 795 801 806 814 821 827 834 839 843 848 853 858 862 866 869 872
759 764 769 773 779 785 791 798 802 807 814 820 826 833 839 843 847 853 857 862 865 868
755 759 763 767 773 779 785 792 797 802 809 815 820 826 833 838 843 847 853 858 860 861
750 754 757 762 768 774 780 785 790 793 801 807 807 819 834 838 837 846 847 858 859 858
746 750 754 757 763 769 774 780 785 791 797 800 804 808 821 820 831 838 837 848 852 855
744 747 751 754 757 763 768 774 781 786 793 798 804 807 811 814 821 827 834 842 844 846
744 746 748 750 752 757 764 768 776 780 786 791 795 800 806 809 817 821 830 834 840 846
741 745 746 750 747 753 758 762 768 775 779 785 790 796 799 805 811 818 823 829 836 840
741 743 742 750 746 749 753 755 763 769 774 780 786 790 795 799 806 814 820 825 831 836
741 741 743 743 748 751 751 752 758 763 770 775 780 787 793 797 803 810 816 822 828 833
741 744 740 743 743 748 753 754 753 759 766 772 778 784 787 791 796 803 812 819 825 831
742 742 741 743 743 751 752 753 755 756 763 770 776 781 782 787 790 797 806 814 821 828